Location: Cabeza de los Veneras
(40.2000°N, 5.2000°W)
Time: 12:13:41
(UTC+00:00)

USA 229 DEB - Pass Details

Date: 18 April 2024
Orbit: 892 x 1319 km, 63.4° (Epoch: 18 May)

Event Time Altitude Azimuth Distance (km) Brightness Sun altitude
Rises 19:49:46 0° 176° (S) 3,502 6.1 -9.2°
Reaches altitude 10° 19:52:36 10° 164° (SSE) 2,590 5.4 -9.7°
Maximum altitude 19:57:27 26° 110° (ESE) 1,772 4.3 -10.6°
Drops below altitude 10° 20:02:35 10° 56° (NE) 2,767 5.6 -11.5°
Sets 20:05:42 0° 45° (NE) 3,790 6.4 -12.0°
